Mattoon, IL

5:19 PM CDT on July 23, 2019 (GMT -0500)
Coles County Memorial

Weather History for KMTO - May, 2019

Change the Weather History Date:

Monday, May 27, 2019

  Actual Average Record
Temperature  
Mean Temperature 73 °F 66 °F  
Max Temperature 84 °F 77 °F 93 °F (2018)
Min Temperature 62 °F 56 °F 35 °F (1961)
Degree Days  
Heating Degree Days 0 2  
Month to date heating degree days 130 121  
Since 1 July heating degree days 5517 5383  
Cooling Degree Days 8 4  
Month to date cooling degree days 87 59  
Year to date cooling degree days 92 73  
Growing Degree Days 22 (Base 50)    
Moisture  
Dew Point 65 °F    
Average Humidity 76    
Maximum Humidity 93    
Minimum Humidity 58    
Precipitation  
Precipitation T in 0.10 in 1.32 in (2000)
Month to date precipitation 2.44 3.92  
Year to date precipitation 11.46 13.90  
Sea Level Pressure  
Sea Level Pressure 29.88 in    
Wind  
Wind Speed 9 mph (South)    
Max Wind Speed 22 mph    
Max Gust Speed 33 mph    
Visibility 10 miles    
Events Rain    
T = Trace of Precipitation, MM = Missing Value Source: NWS Daily Summary

Daily Weather History Graph

Daily Weather History Graph

Search for Another Location

Airport or City:

Astronomy

May. 27, 2019 Rise Set
Actual Time 5:30 AM CDT 8:10 PM CDT
Civil Twilight 4:59 AM CDT 8:41 PM CDT
Nautical Twilight 4:19 AM CDT 9:21 PM CDT
Astronomical Twilight 3:35 AM CDT 10:05 PM CDT
Moon 2:12 AM CDT (5/27) 1:25 PM CDT (5/27)
Length of Visible Light 15h 42m
Length of Day
14h 40m
Last Quarter, 40% of the Moon is Illuminated
May 27
Last Quarter
Jun 3
New
Jun 10
First Quarter
Jun 17
Full
Jun 25
Last Quarter

Hourly Weather History & Observations

Time (CDT) Temp. Heat Index Dew Point Humidity Pressure Visibility Wind Dir Wind Speed Gust Speed Precip Events Conditions
12:53 AM 66.0 °F - 63.0 °F 90% 30.03 in 10.0 mi Calm Calm - N/A   Clear
1:53 AM 66.0 °F - 63.0 °F 90% 30.02 in 9.0 mi Calm Calm - N/A   Clear
2:53 AM 64.0 °F - 62.1 °F 93% 30.01 in 9.0 mi Calm Calm - N/A   Clear
3:53 AM 63.0 °F - 61.0 °F 93% 30.01 in 10.0 mi Calm Calm - N/A   Clear
4:53 AM 62.1 °F - 61.0 °F 96% 29.99 in 10.0 mi ESE 5.8 mph - 0.00 in Rain Light Rain
5:53 AM 64.0 °F - 62.1 °F 93% 30.00 in 10.0 mi SE 4.6 mph - 0.00 in   Clear
6:53 AM 66.0 °F - 63.0 °F 90% 30.01 in 10.0 mi SE 6.9 mph - N/A   Clear
7:53 AM 70.0 °F - 64.9 °F 84% 30.01 in 10.0 mi SSE 6.9 mph - N/A   Clear
8:53 AM 73.9 °F - 66.0 °F 76% 29.98 in 10.0 mi SSE 11.5 mph - N/A   Clear
9:53 AM 77.0 °F - 66.0 °F 69% 29.95 in 10.0 mi South 13.8 mph 23.0 mph N/A   Mostly Cloudy
10:53 AM 79.0 °F - 66.9 °F 66% 29.93 in 10.0 mi SSE 11.5 mph 23.0 mph N/A   Partly Cloudy
11:53 AM 80.1 °F 82.9 °F 69.1 °F 69% 29.92 in 10.0 mi South 12.7 mph - N/A   Clear
12:53 PM 82.0 °F 84.9 °F 68.0 °F 62% 29.88 in 10.0 mi South 12.7 mph 20.7 mph N/A   Scattered Clouds
1:53 PM 82.9 °F 85.0 °F 66.0 °F 56% 29.86 in 10.0 mi South 15.0 mph 24.2 mph N/A   Mostly Cloudy
2:53 PM 82.9 °F 85.4 °F 66.9 °F 58% 29.79 in 10.0 mi South 15.0 mph 26.5 mph 0.00 in Rain Light Rain
3:53 PM 82.9 °F 85.0 °F 66.0 °F 56% 29.78 in 10.0 mi South 13.8 mph 31.1 mph 0.00 in Rain Light Rain
4:53 PM 82.9 °F 85.8 °F 68.0 °F 60% 29.77 in 10.0 mi SSW 13.8 mph 24.2 mph 0.00 in   Mostly Cloudy
5:53 PM 82.9 °F 85.0 °F 66.0 °F 56% 29.77 in 10.0 mi SW 11.5 mph 24.2 mph 0.00 in   Clear
6:53 PM 81.0 °F 83.8 °F 68.0 °F 65% 29.76 in 10.0 mi SSW 11.5 mph - N/A   Clear
7:53 PM 79.0 °F - 66.0 °F 64% 29.75 in 10.0 mi SSW 6.9 mph - N/A   Clear
8:53 PM 77.0 °F - 66.9 °F 71% 29.74 in 10.0 mi South 6.9 mph - N/A   Clear
9:53 PM 77.0 °F - 66.9 °F 71% 29.75 in 10.0 mi South 6.9 mph - N/A   Mostly Cloudy
10:53 PM 75.9 °F - 66.0 °F 71% 29.75 in 10.0 mi SSW 9.2 mph - N/A   Partly Cloudy
11:53 PM 75.9 °F - 64.9 °F 69% 29.75 in 10.0 mi SSW 9.2 mph - N/A   Clear